TimeEST,TemperatureF,Dew PointF,Humidity,Sea Level PressureIn,VisibilityMPH,Wind Direction,Wind SpeedMPH,Gust SpeedMPH,PrecipitationIn,Events,Conditions,WindDirDegrees,DateUTC
12:53 AM,28.0,25.0,88,30.40,5.0,NNW,3.5,-,N/A,,Clear,340,2013-01-09 05:53:00
1:53 AM,28.0,25.0,88,30.39,5.0,Calm,Calm,-,N/A,,Clear,0,2013-01-09 06:53:00
2:53 AM,28.0,24.1,85,30.38,6.0,NW,3.5,-,N/A,,Clear,320,2013-01-09 07:53:00
3:53 AM,28.0,24.1,85,30.39,5.0,Calm,Calm,-,N/A,,Clear,0,2013-01-09 08:53:00
4:53 AM,28.0,24.1,85,30.38,6.0,Calm,Calm,-,N/A,,Clear,0,2013-01-09 09:53:00
5:53 AM,28.9,26.1,89,30.38,6.0,Calm,Calm,-,N/A,,Clear,0,2013-01-09 10:53:00
6:53 AM,30.0,27.0,88,30.38,6.0,SE,3.5,-,N/A,,Clear,140,2013-01-09 11:53:00
7:53 AM,28.9,25.0,85,30.39,4.0,Calm,Calm,-,N/A,,Clear,0,2013-01-09 12:53:00
8:53 AM,30.0,27.0,88,30.40,4.0,Calm,Calm,-,N/A,,Clear,0,2013-01-09 13:53:00
9:53 AM,33.1,28.9,85,30.39,3.0,Calm,Calm,-,N/A,,Partly Cloudy,0,2013-01-09 14:53:00
10:53 AM,35.1,30.9,85,30.38,3.0,Calm,Calm,-,N/A,,Overcast,0,2013-01-09 15:53:00
11:53 AM,35.1,30.9,85,30.37,3.0,Calm,Calm,-,N/A,,Overcast,0,2013-01-09 16:53:00
1:53 PM,39.9,32.0,73,30.27,7.0,South,11.5,-,N/A,,Scattered Clouds,190,2013-01-09 18:53:00
2:53 PM,39.9,32.0,73,30.28,6.0,SW,5.8,-,N/A,,Haze,230,2013-01-09 19:53:00
3:53 PM,42.1,34.0,73,30.28,6.0,SSW,4.6,-,N/A,,Haze,210,2013-01-09 20:53:00
4:53 PM,44.1,35.1,71,30.30,6.0,SSW,3.5,-,N/A,,Haze,210,2013-01-09 21:53:00
5:53 PM,48.9,39.9,71,30.30,10.0,West,10.4,-,N/A,,Clear,260,2013-01-09 22:53:00
6:53 PM,50.0,39.0,66,30.33,10.0,WSW,10.4,-,N/A,,Clear,250,2013-01-09 23:53:00
7:53 PM,48.9,36.0,61,30.34,10.0,WSW,10.4,-,N/A,,Clear,250,2013-01-10 00:53:00
9:53 PM,46.9,30.9,54,30.37,10.0,SW,5.8,-,N/A,,Clear,220,2013-01-10 02:53:00
10:53 PM,46.0,28.9,51,30.40,10.0,West,4.6,-,N/A,,Clear,260,2013-01-10 03:53:00
11:53 PM,45.0,27.0,49,30.42,10.0,WSW,6.9,-,N/A,,Clear,250,2013-01-10 04:53:00